Location: *
(49.1466°N, 1.6216°E)
Time: 06:09:22
(UTC+00:00)

CZ-4C R/B - Pass Details

Date: 25 September 2023
Orbit: 542 x 1454 km, 63.4° (Epoch: 10 December)

Event Time Altitude Azimuth Distance (km) Brightness Sun altitude
Rises 18:40:30 0° 270° (W) 3,082 7.2 -9.7°
Reaches altitude 10° 18:42:59 10° 284° (WNW) 2,286 6.1 -10.1°
Maximum altitude 18:47:28 27° 342° (NNW) 1,616 4.0 -10.9°
Drops below altitude 10° 18:52:53 10° 38° (NE) 2,810 4.7 -11.7°
Sets 18:56:18 0° 50° (NE) 3,939 5.3 -12.3°
